Year,Month,Day,Hour,Minute,Value (Times are PST for windgust in km/hr)
2012,01,27,00,00,3.20
2012,01,27,00,01,3.20
2012,01,27,00,02,3.20
2012,01,27,00,03,4.80
2012,01,27,00,04,6.40
2012,01,27,00,05,3.20
2012,01,27,00,06,4.80
2012,01,27,00,07,6.40
2012,01,27,00,08,4.80
2012,01,27,00,09,4.80
2012,01,27,00,10,4.80
2012,01,27,00,11,3.20
2012,01,27,00,12,1.60
2012,01,27,00,14,1.60
2012,01,27,00,17,1.60
2012,01,27,00,18,3.20
2012,01,27,00,19,4.80
2012,01,27,00,20,4.80
2012,01,27,00,21,3.20
2012,01,27,00,22,4.80
2012,01,27,00,23,3.20
2012,01,27,00,24,4.80
2012,01,27,00,27,1.60
2012,01,27,00,28,3.20
2012,01,27,00,29,3.20
2012,01,27,00,30,3.20
2012,01,27,00,31,4.80
2012,01,27,00,32,4.80
2012,01,27,00,33,3.20
2012,01,27,00,34,4.80
2012,01,27,00,35,4.80
2012,01,27,00,36,3.20
2012,01,27,00,37,4.80
2012,01,27,00,38,3.20
2012,01,27,00,39,4.80
2012,01,27,00,40,3.20
2012,01,27,00,44,3.20
2012,01,27,00,45,4.80
2012,01,27,00,46,3.20
2012,01,27,00,47,1.60
2012,01,27,00,48,3.20
2012,01,27,00,49,3.20
2012,01,27,00,50,4.80
2012,01,27,00,51,4.80
2012,01,27,00,52,3.20
2012,01,27,00,53,1.60
2012,01,27,00,54,4.80
2012,01,27,00,55,3.20
2012,01,27,00,56,3.20
2012,01,27,00,57,1.60
2012,01,27,00,58,3.20
2012,01,27,00,59,3.20
2012,01,27,01,00,1.60
2012,01,27,01,49,1.60
2012,01,27,01,52,1.60
2012,01,27,01,54,1.60
2012,01,27,01,55,1.60
2012,01,27,02,12,1.60
2012,01,27,02,13,1.60
2012,01,27,02,14,1.60
2012,01,27,02,15,1.60
2012,01,27,02,16,1.60
2012,01,27,02,20,3.20
2012,01,27,02,21,1.60
2012,01,27,02,35,1.60
2012,01,27,02,36,3.20
2012,01,27,02,37,3.20
2012,01,27,02,38,1.60
2012,01,27,03,06,3.20
2012,01,27,03,23,1.60
2012,01,27,03,24,1.60
2012,01,27,03,25,3.20
2012,01,27,03,26,3.20
2012,01,27,03,36,1.60
2012,01,27,04,08,3.20
2012,01,27,04,09,3.20
2012,01,27,04,15,1.60
2012,01,27,04,16,3.20
2012,01,27,04,19,1.60
2012,01,27,04,20,1.60
2012,01,27,04,21,3.20
2012,01,27,04,22,3.20
2012,01,27,04,28,1.60
2012,01,27,04,53,3.20
2012,01,27,04,54,1.60
2012,01,27,04,55,3.20
2012,01,27,04,56,3.20
2012,01,27,04,57,1.60
2012,01,27,05,01,3.20
2012,01,27,05,02,1.60
2012,01,27,05,24,1.60
2012,01,27,05,25,1.60
2012,01,27,05,26,1.60
2012,01,27,06,18,1.60
2012,01,27,06,19,1.60
2012,01,27,06,20,1.60
2012,01,27,06,21,1.60
2012,01,27,06,22,1.60
2012,01,27,06,26,1.60
2012,01,27,06,44,3.20
2012,01,27,06,45,1.60
2012,01,27,06,46,3.20
2012,01,27,06,47,3.20
2012,01,27,07,02,1.60
2012,01,27,07,11,3.20
2012,01,27,07,12,3.20
2012,01,27,07,21,3.20
2012,01,27,07,26,1.60
2012,01,27,07,32,1.60
2012,01,27,07,33,4.80
2012,01,27,07,34,4.80
2012,01,27,07,37,3.20
2012,01,27,07,38,1.60
2012,01,27,07,42,3.20
2012,01,27,07,43,1.60
2012,01,27,07,44,3.20
2012,01,27,07,52,4.80
2012,01,27,07,53,4.80
2012,01,27,07,54,3.20
2012,01,27,07,56,1.60
2012,01,27,07,57,1.60
2012,01,27,08,02,1.60
2012,01,27,08,03,4.80
2012,01,27,08,04,1.60
2012,01,27,08,05,3.20
2012,01,27,08,08,1.60
2012,01,27,08,09,1.60
2012,01,27,08,14,3.20
2012,01,27,08,15,3.20
2012,01,27,08,16,1.60
2012,01,27,08,17,1.60
2012,01,27,08,19,1.60
2012,01,27,08,23,3.20
2012,01,27,08,24,1.60
2012,01,27,08,25,3.20
2012,01,27,08,26,1.60
2012,01,27,08,39,3.20
2012,01,27,08,40,1.60
2012,01,27,08,41,4.80
2012,01,27,08,42,3.20
2012,01,27,08,44,3.20
2012,01,27,08,45,3.20
2012,01,27,08,46,6.40
2012,01,27,08,47,6.40
2012,01,27,08,48,4.80
2012,01,27,08,49,1.60
2012,01,27,08,50,1.60
2012,01,27,08,51,1.60
2012,01,27,08,52,3.20
2012,01,27,08,53,4.80
2012,01,27,08,54,3.20
2012,01,27,08,55,3.20
2012,01,27,08,56,4.80
2012,01,27,08,57,3.20
2012,01,27,08,58,1.60
2012,01,27,09,04,1.60
2012,01,27,09,05,1.60
2012,01,27,09,06,1.60
2012,01,27,09,08,1.60
2012,01,27,09,12,4.80
2012,01,27,09,13,4.80
2012,01,27,09,14,3.20
2012,01,27,09,15,4.80
2012,01,27,09,16,4.80
2012,01,27,09,17,4.80
2012,01,27,09,18,3.20
2012,01,27,09,19,1.60
2012,01,27,09,20,3.20
2012,01,27,09,21,6.40
2012,01,27,09,22,6.40
2012,01,27,09,23,6.40
2012,01,27,09,24,4.80
2012,01,27,09,25,1.60
2012,01,27,09,26,1.60
2012,01,27,09,27,3.20
2012,01,27,09,30,1.60
2012,01,27,09,31,3.20
2012,01,27,09,32,3.20
2012,01,27,09,34,3.20
2012,01,27,09,35,3.20
2012,01,27,09,36,4.80
2012,01,27,09,37,4.80
2012,01,27,09,38,4.80
2012,01,27,09,39,3.20
2012,01,27,09,44,4.80
2012,01,27,09,45,6.40
2012,01,27,09,46,6.40
2012,01,27,09,47,8.10
2012,01,27,09,48,4.80
2012,01,27,09,49,4.80
2012,01,27,09,50,4.80
2012,01,27,09,51,1.60
2012,01,27,09,52,4.80
2012,01,27,09,53,4.80
2012,01,27,09,55,3.20
2012,01,27,09,56,1.60
2012,01,27,09,57,3.20
2012,01,27,09,58,6.40
2012,01,27,09,59,6.40
2012,01,27,10,00,9.60
2012,01,27,10,01,8.10
2012,01,27,10,02,9.60
2012,01,27,10,03,9.60
2012,01,27,10,04,8.10
2012,01,27,10,05,8.10
2012,01,27,10,06,9.60
2012,01,27,10,07,11.30
2012,01,27,10,08,9.60
2012,01,27,10,09,11.30
2012,01,27,10,10,8.10
2012,01,27,10,11,6.40
2012,01,27,10,12,4.80
2012,01,27,10,13,4.80
2012,01,27,10,14,8.10
2012,01,27,10,15,6.40
2012,01,27,10,16,11.30
2012,01,27,10,17,11.30
2012,01,27,10,18,4.80
2012,01,27,10,19,14.50
2012,01,27,10,20,8.10
2012,01,27,10,21,9.60
2012,01,27,10,22,8.10
2012,01,27,10,23,6.40
2012,01,27,10,24,12.90
2012,01,27,10,25,11.30
2012,01,27,10,26,11.30
2012,01,27,10,27,8.10
2012,01,27,10,28,6.40
2012,01,27,10,29,9.60
2012,01,27,10,30,9.60
2012,01,27,10,31,9.60
2012,01,27,10,32,9.60
2012,01,27,10,33,9.60
2012,01,27,10,34,9.60
2012,01,27,10,35,8.10
2012,01,27,10,36,8.10
2012,01,27,10,37,9.60
2012,01,27,10,38,11.30
2012,01,27,10,39,9.60
2012,01,27,10,40,9.60
2012,01,27,10,41,8.10
2012,01,27,10,42,6.40
2012,01,27,10,43,4.80
2012,01,27,10,44,8.10
2012,01,27,10,45,8.10
2012,01,27,10,46,9.60
2012,01,27,10,47,8.10
2012,01,27,10,48,1.60
2012,01,27,10,49,4.80
2012,01,27,10,50,4.80
2012,01,27,10,51,6.40
2012,01,27,10,52,11.30
2012,01,27,10,53,9.60
2012,01,27,10,54,9.60
2012,01,27,10,55,11.30
2012,01,27,10,56,8.10
2012,01,27,10,57,4.80
2012,01,27,10,58,8.10
2012,01,27,10,59,14.50
2012,01,27,11,00,9.60
2012,01,27,11,01,3.20
2012,01,27,11,02,8.10
2012,01,27,11,03,9.60
2012,01,27,11,04,9.60
2012,01,27,11,05,14.50
2012,01,27,11,06,11.30
2012,01,27,11,07,16.10
2012,01,27,11,08,11.30
2012,01,27,11,09,11.30
2012,01,27,11,10,9.60
2012,01,27,11,11,6.40
2012,01,27,11,12,9.60
2012,01,27,11,13,11.30
2012,01,27,11,14,8.10
2012,01,27,11,15,8.10
2012,01,27,11,16,9.60
2012,01,27,11,17,8.10
2012,01,27,11,18,12.90
2012,01,27,11,19,16.10
2012,01,27,11,20,14.50
2012,01,27,11,21,9.60
2012,01,27,11,22,11.30
2012,01,27,11,23,11.30
2012,01,27,11,24,14.50
2012,01,27,11,25,9.60
2012,01,27,11,26,11.30
2012,01,27,11,27,9.60
2012,01,27,11,28,9.60
2012,01,27,11,29,9.60
2012,01,27,11,30,9.60
2012,01,27,11,31,12.90
2012,01,27,11,32,11.30
2012,01,27,11,33,9.60
2012,01,27,11,34,9.60
2012,01,27,11,35,9.60
2012,01,27,11,36,16.10
2012,01,27,11,37,11.30
2012,01,27,11,38,14.50
2012,01,27,11,39,14.50
2012,01,27,11,40,11.30
2012,01,27,11,41,9.60
2012,01,27,11,42,11.30
2012,01,27,11,43,11.30
2012,01,27,11,44,16.10
2012,01,27,11,45,8.10
2012,01,27,11,46,19.30
2012,01,27,11,47,12.90
2012,01,27,11,48,9.60
2012,01,27,11,49,8.10
2012,01,27,11,50,16.10
2012,01,27,11,51,11.30
2012,01,27,11,52,14.50
2012,01,27,11,53,11.30
2012,01,27,11,54,11.30
2012,01,27,11,55,11.30
2012,01,27,11,56,14.50
2012,01,27,11,57,11.30
2012,01,27,11,58,11.30
2012,01,27,11,59,9.60
2012,01,27,12,00,8.10
2012,01,27,12,01,16.10
2012,01,27,12,02,16.10
2012,01,27,12,03,14.50
2012,01,27,12,04,14.50
2012,01,27,12,05,17.70
2012,01,27,12,06,11.30
2012,01,27,12,07,8.10
2012,01,27,12,08,11.30
2012,01,27,12,09,14.50
2012,01,27,12,10,6.40
2012,01,27,12,11,8.10
2012,01,27,12,12,9.60
2012,01,27,12,13,6.40
2012,01,27,12,14,11.30
2012,01,27,12,15,17.70
2012,01,27,12,16,16.10
2012,01,27,12,17,16.10
2012,01,27,12,18,14.50
2012,01,27,12,19,14.50
2012,01,27,12,20,17.70
2012,01,27,12,21,11.30
2012,01,27,12,22,14.50
2012,01,27,12,23,8.10
2012,01,27,12,24,9.60
2012,01,27,12,25,11.30
2012,01,27,12,26,12.90
2012,01,27,12,27,11.30
2012,01,27,12,28,9.60
2012,01,27,12,29,9.60
2012,01,27,12,30,14.50
2012,01,27,12,31,16.10
2012,01,27,12,32,8.10
2012,01,27,12,33,14.50
2012,01,27,12,34,14.50
2012,01,27,12,35,17.70
2012,01,27,12,36,14.50
2012,01,27,12,37,9.60
2012,01,27,12,38,8.10
2012,01,27,12,39,12.90
2012,01,27,12,40,14.50
2012,01,27,12,41,11.30
2012,01,27,12,42,9.60
2012,01,27,12,43,12.90
2012,01,27,12,44,4.80
2012,01,27,12,45,11.30
2012,01,27,12,46,12.90
2012,01,27,12,47,17.70
2012,01,27,12,48,16.10
2012,01,27,12,49,9.60
2012,01,27,12,50,11.30
2012,01,27,12,51,17.70
2012,01,27,12,52,11.30
2012,01,27,12,53,19.30
2012,01,27,12,54,9.60
2012,01,27,12,55,9.60
2012,01,27,12,56,9.60
2012,01,27,12,57,11.30
2012,01,27,12,58,8.10
2012,01,27,12,59,14.50
2012,01,27,13,00,9.60
2012,01,27,13,01,19.30
2012,01,27,13,02,11.30
2012,01,27,13,03,11.30
2012,01,27,13,04,17.70
2012,01,27,13,05,19.30
2012,01,27,13,06,11.30
2012,01,27,13,07,16.10
2012,01,27,13,08,16.10
2012,01,27,13,09,14.50
2012,01,27,13,10,12.90
2012,01,27,13,11,11.30
2012,01,27,13,12,14.50
2012,01,27,13,13,12.90
2012,01,27,13,14,16.10
2012,01,27,13,15,11.30
2012,01,27,13,16,11.30
2012,01,27,13,17,11.30
2012,01,27,13,18,12.90
2012,01,27,13,19,11.30
2012,01,27,13,20,11.30
2012,01,27,13,21,9.60
2012,01,27,13,22,20.90
2012,01,27,13,23,17.70
2012,01,27,13,24,11.30
2012,01,27,13,25,9.60
2012,01,27,13,26,9.60
2012,01,27,13,27,8.10
2012,01,27,13,28,9.60
2012,01,27,13,29,11.30
2012,01,27,13,30,4.80
2012,01,27,13,31,14.50
2012,01,27,13,32,11.30
2012,01,27,13,33,12.90
2012,01,27,13,34,12.90
2012,01,27,13,35,14.50
2012,01,27,13,36,11.30
2012,01,27,13,37,17.70
2012,01,27,13,38,16.10
2012,01,27,13,39,16.10
2012,01,27,13,40,17.70
2012,01,27,13,41,11.30
2012,01,27,13,42,14.50
2012,01,27,13,43,16.10
2012,01,27,13,44,14.50
2012,01,27,13,45,14.50
2012,01,27,13,46,12.90
2012,01,27,13,47,14.50
2012,01,27,13,48,11.30
2012,01,27,13,49,11.30
2012,01,27,13,50,11.30
2012,01,27,13,51,8.10
2012,01,27,13,52,8.10
2012,01,27,13,53,11.30
2012,01,27,13,54,9.60
2012,01,27,13,55,11.30
2012,01,27,13,56,14.50
2012,01,27,13,57,11.30
2012,01,27,13,58,14.50
2012,01,27,13,59,11.30
2012,01,27,14,00,9.60
2012,01,27,14,01,9.60
2012,01,27,14,02,9.60
2012,01,27,14,03,9.60
2012,01,27,14,04,6.40
2012,01,27,14,05,3.20
2012,01,27,14,06,8.10
2012,01,27,14,07,6.40
2012,01,27,14,08,11.30
2012,01,27,14,09,8.10
2012,01,27,14,10,14.50
2012,01,27,14,11,11.30
2012,01,27,14,12,9.60
2012,01,27,14,13,9.60
2012,01,27,14,14,12.90
2012,01,27,14,15,9.60
2012,01,27,14,16,16.10
2012,01,27,14,17,11.30
2012,01,27,14,18,14.50
2012,01,27,14,19,11.30
2012,01,27,14,20,11.30
2012,01,27,14,21,9.60
2012,01,27,14,22,9.60
2012,01,27,14,23,9.60
2012,01,27,14,24,11.30
2012,01,27,14,25,11.30
2012,01,27,14,26,11.30
2012,01,27,14,27,12.90
2012,01,27,14,28,16.10
2012,01,27,14,29,9.60
2012,01,27,14,30,11.30
2012,01,27,14,31,9.60
2012,01,27,14,32,8.10
2012,01,27,14,33,11.30
2012,01,27,14,34,8.10
2012,01,27,14,35,6.40
2012,01,27,14,36,4.80
2012,01,27,14,37,14.50
2012,01,27,14,38,17.70
2012,01,27,14,39,16.10
2012,01,27,14,40,14.50
2012,01,27,14,41,11.30
2012,01,27,14,42,11.30
2012,01,27,14,43,9.60
2012,01,27,14,44,11.30
2012,01,27,14,45,8.10
2012,01,27,14,46,11.30
2012,01,27,14,47,8.10
2012,01,27,14,48,8.10
2012,01,27,14,49,9.60
2012,01,27,14,50,6.40
2012,01,27,14,51,8.10
2012,01,27,14,52,8.10
2012,01,27,14,53,9.60
2012,01,27,14,54,9.60
2012,01,27,14,55,6.40
2012,01,27,14,56,9.60
2012,01,27,14,57,12.90
2012,01,27,14,58,14.50
2012,01,27,14,59,11.30
2012,01,27,15,00,16.10
2012,01,27,15,01,14.50
2012,01,27,15,02,16.10
2012,01,27,15,03,16.10
2012,01,27,15,04,9.60
2012,01,27,15,05,17.70
2012,01,27,15,06,9.60
2012,01,27,15,07,9.60
2012,01,27,15,08,14.50
2012,01,27,15,09,16.10
2012,01,27,15,10,11.30
2012,01,27,15,11,16.10
2012,01,27,15,12,14.50
2012,01,27,15,13,11.30
2012,01,27,15,14,19.30
2012,01,27,15,15,20.90
2012,01,27,15,16,19.30
2012,01,27,15,17,17.70
2012,01,27,15,18,19.30
2012,01,27,15,19,16.10
2012,01,27,15,20,11.30
2012,01,27,15,21,17.70
2012,01,27,15,22,20.90
2012,01,27,15,23,16.10
2012,01,27,15,24,16.10
2012,01,27,15,25,16.10
2012,01,27,15,26,17.70
2012,01,27,15,27,19.30
2012,01,27,15,28,16.10
2012,01,27,15,29,17.70
2012,01,27,15,30,17.70
2012,01,27,15,31,11.30
2012,01,27,15,32,11.30
2012,01,27,15,33,14.50
2012,01,27,15,34,6.40
2012,01,27,15,35,4.80
2012,01,27,15,36,4.80
2012,01,27,15,37,17.70
2012,01,27,15,38,9.60
2012,01,27,15,39,11.30
2012,01,27,15,40,11.30
2012,01,27,15,41,14.50
2012,01,27,15,42,11.30
2012,01,27,15,43,14.50
2012,01,27,15,44,14.50
2012,01,27,15,45,9.60
2012,01,27,15,46,9.60
2012,01,27,15,47,14.50
2012,01,27,15,48,11.30
2012,01,27,15,49,16.10
2012,01,27,15,50,14.50
2012,01,27,15,51,8.10
2012,01,27,15,52,6.40
2012,01,27,15,53,6.40
2012,01,27,15,54,8.10
2012,01,27,15,55,9.60
2012,01,27,15,56,16.10
2012,01,27,15,57,11.30
2012,01,27,15,58,9.60
2012,01,27,15,59,9.60
2012,01,27,16,00,11.30
2012,01,27,16,01,9.60
2012,01,27,16,02,14.50
2012,01,27,16,03,16.10
2012,01,27,16,04,14.50
2012,01,27,16,05,9.60
2012,01,27,16,06,6.40
2012,01,27,16,07,8.10
2012,01,27,16,08,12.90
2012,01,27,16,09,14.50
2012,01,27,16,10,8.10
2012,01,27,16,11,9.60
2012,01,27,16,12,11.30
2012,01,27,16,13,9.60
2012,01,27,16,14,6.40
2012,01,27,16,15,6.40
2012,01,27,16,16,9.60
2012,01,27,16,17,6.40
2012,01,27,16,18,9.60
2012,01,27,16,19,16.10
2012,01,27,16,20,14.50
2012,01,27,16,21,16.10
2012,01,27,16,22,11.30
2012,01,27,16,23,9.60
2012,01,27,16,24,9.60
2012,01,27,16,25,11.30
2012,01,27,16,26,11.30
2012,01,27,16,27,11.30
2012,01,27,16,28,9.60
2012,01,27,16,29,11.30
2012,01,27,16,30,6.40
2012,01,27,16,31,9.60
2012,01,27,16,32,14.50
2012,01,27,16,33,9.60
2012,01,27,16,34,6.40
2012,01,27,16,35,8.10
2012,01,27,16,36,8.10
2012,01,27,16,37,4.80
2012,01,27,16,38,4.80
2012,01,27,16,39,9.60
2012,01,27,16,40,11.30
2012,01,27,16,41,9.60
2012,01,27,16,42,6.40
2012,01,27,16,43,9.60
2012,01,27,16,44,4.80
2012,01,27,16,45,4.80
2012,01,27,16,46,8.10
2012,01,27,16,47,9.60
2012,01,27,16,48,11.30
2012,01,27,16,49,8.10
2012,01,27,16,50,6.40
2012,01,27,16,51,8.10
2012,01,27,16,52,6.40
2012,01,27,16,53,6.40
2012,01,27,16,54,6.40
2012,01,27,16,55,8.10
2012,01,27,16,56,6.40
2012,01,27,16,57,6.40
2012,01,27,16,58,6.40
2012,01,27,16,59,8.10
2012,01,27,17,00,4.80
2012,01,27,17,01,6.40
2012,01,27,17,02,4.80
2012,01,27,17,03,3.20
2012,01,27,17,04,4.80
2012,01,27,17,05,4.80
2012,01,27,17,06,4.80
2012,01,27,17,07,4.80
2012,01,27,17,08,4.80
2012,01,27,17,09,4.80
2012,01,27,17,10,3.20
2012,01,27,17,11,1.60
2012,01,27,17,12,4.80
2012,01,27,17,13,4.80
2012,01,27,17,14,3.20
2012,01,27,17,15,4.80
2012,01,27,17,16,6.40
2012,01,27,17,17,6.40
2012,01,27,17,18,6.40
2012,01,27,17,19,6.40
2012,01,27,17,20,9.60
2012,01,27,17,21,8.10
2012,01,27,17,22,9.60
2012,01,27,17,23,8.10
2012,01,27,17,24,11.30
2012,01,27,17,25,8.10
2012,01,27,17,26,8.10
2012,01,27,17,27,6.40
2012,01,27,17,28,6.40
2012,01,27,17,29,6.40
2012,01,27,17,30,6.40
2012,01,27,17,31,8.10
2012,01,27,17,32,8.10
2012,01,27,17,33,6.40
2012,01,27,17,34,8.10
2012,01,27,17,35,6.40
2012,01,27,17,36,6.40
2012,01,27,17,37,6.40
2012,01,27,17,38,6.40
2012,01,27,17,39,4.80
2012,01,27,17,40,4.80
2012,01,27,17,41,3.20
2012,01,27,17,42,1.60
2012,01,27,17,44,3.20
2012,01,27,17,45,1.60
2012,01,27,17,50,1.60
2012,01,27,17,51,3.20
2012,01,27,17,52,3.20
2012,01,27,17,54,1.60
2012,01,27,17,57,1.60
2012,01,27,17,59,4.80
2012,01,27,18,00,4.80
2012,01,27,18,01,3.20
2012,01,27,18,02,4.80
2012,01,27,18,03,4.80
2012,01,27,18,04,4.80
2012,01,27,18,05,4.80
2012,01,27,18,06,8.10
2012,01,27,18,07,4.80
2012,01,27,18,08,6.40
2012,01,27,18,09,6.40
2012,01,27,18,10,8.10
2012,01,27,18,11,8.10
2012,01,27,18,12,8.10
2012,01,27,18,13,9.60
2012,01,27,18,14,14.50
2012,01,27,18,15,9.60
2012,01,27,18,16,8.10
2012,01,27,18,17,9.60
2012,01,27,18,18,11.30
2012,01,27,18,19,9.60
2012,01,27,18,20,11.30
2012,01,27,18,21,11.30
2012,01,27,18,22,8.10
2012,01,27,18,23,6.40
2012,01,27,18,24,4.80
2012,01,27,18,25,8.10
2012,01,27,18,26,1.60
2012,01,27,18,27,6.40
2012,01,27,18,28,3.20
2012,01,27,18,29,6.40
2012,01,27,18,30,6.40
2012,01,27,18,31,4.80
2012,01,27,18,32,4.80
2012,01,27,18,34,3.20
2012,01,27,18,37,1.60
2012,01,27,18,46,1.60
2012,01,27,18,57,1.60
2012,01,27,19,00,3.20
2012,01,27,19,01,4.80
2012,01,27,19,02,6.40
2012,01,27,19,03,6.40
2012,01,27,19,04,6.40
2012,01,27,19,05,6.40
2012,01,27,19,06,8.10
2012,01,27,19,07,8.10
2012,01,27,19,08,6.40
2012,01,27,19,09,6.40
2012,01,27,19,10,6.40
2012,01,27,19,11,6.40
2012,01,27,19,12,6.40
2012,01,27,19,13,4.80
2012,01,27,19,14,4.80
2012,01,27,19,15,6.40
2012,01,27,19,16,6.40
2012,01,27,19,17,4.80
2012,01,27,19,18,6.40
2012,01,27,19,19,8.10
2012,01,27,19,20,6.40
2012,01,27,19,21,8.10
2012,01,27,19,22,4.80
2012,01,27,19,23,6.40
2012,01,27,19,24,4.80
2012,01,27,19,25,6.40
2012,01,27,19,26,4.80
2012,01,27,19,27,3.20
2012,01,27,19,28,3.20
2012,01,27,19,29,4.80
2012,01,27,19,30,3.20
2012,01,27,19,35,1.60
2012,01,27,19,40,1.60
2012,01,27,19,41,3.20
2012,01,27,19,45,1.60
2012,01,27,19,46,3.20
2012,01,27,19,47,3.20
2012,01,27,19,48,3.20
2012,01,27,19,49,6.40
2012,01,27,19,50,6.40
2012,01,27,19,51,6.40
2012,01,27,19,52,8.10
2012,01,27,19,53,4.80
2012,01,27,19,54,4.80
2012,01,27,19,55,6.40
2012,01,27,19,56,6.40
2012,01,27,19,57,6.40
2012,01,27,19,58,4.80
2012,01,27,19,59,4.80
2012,01,27,20,00,4.80
2012,01,27,20,01,4.80
2012,01,27,20,02,3.20
2012,01,27,20,03,1.60
2012,01,27,20,08,1.60
2012,01,27,20,14,1.60
2012,01,27,20,19,1.60
2012,01,27,20,20,1.60
2012,01,27,20,29,1.60
2012,01,27,20,39,1.60
2012,01,27,20,49,1.60
2012,01,27,20,50,3.20
2012,01,27,20,51,1.60
2012,01,27,20,52,1.60
2012,01,27,23,17,1.60
2012,01,27,23,18,1.60
2012,01,27,23,21,1.60
2012,01,27,23,22,1.60
2012,01,27,23,23,1.60
2012,01,27,23,24,3.20
2012,01,27,23,33,1.60
2012,01,27,23,52,1.60
